, FL

(GMT )
Whiting Fld NAS

Weather History for KNSE - November, 2011

Change the Weather History Date:

Tuesday, November 29, 2011

  Actual Average Record
Temperature  
Mean Temperature 47 °F -  
Max Temperature 59 °F 65 °F 75 °F (2008)
Min Temperature 35 °F 45 °F 30 °F (2013)
Degree Days  
Heating Degree Days 18    
Moisture  
Dew Point 36 °F    
Average Humidity 70    
Maximum Humidity 93    
Minimum Humidity 39    
Precipitation  
Precipitation 0.00 in - - ()
Sea Level Pressure  
Sea Level Pressure 29.98 in    
Wind  
Wind Speed 9 mph (West)    
Max Wind Speed 17 mph    
Max Gust Speed 29 mph    
Visibility 10 miles    
Events      
Averages and records for this station are not official NWS values.
T = Trace of Precipitation, MM = Missing Value Source: NWS Daily Summary

Daily Weather History Graph

Daily Weather History Graph

Search for Another Location

Airport or City:

Trip Planner

Search our weather history database for the weather conditions in past years. The results will help you decide how hot, cold, wet, or windy it might be!

Date:

Astronomy

Nov. 29, 2011 Rise Set
Actual Time 6:26 AM CST 4:46 PM CST
Civil Twilight 5:59 AM CST 5:12 PM CST
Nautical Twilight 5:30 AM CST 5:42 PM CST
Astronomical Twilight 5:01 AM CST 6:11 PM CST
Moon 10:18 AM CST (11/29) 9:30 PM CST (11/29)
Length of Visible Light 11h 12m
Length of Day
10h 20m
Waxing Crescent, 24% of the Moon is Illuminated
Nov 29
Waxing Crescent
Dec 2
First Quarter
Dec 10
Full
Dec 17
Last Quarter
Dec 24
New

Hourly Weather History & Observations

Time (CST) Temp. Windchill Dew Point Humidity Pressure Visibility Wind Dir Wind Speed Gust Speed Precip Events Conditions
12:56 AM 39.9 °F 36.7 °F 37.9 °F 93% 29.94 in 10.0 mi SW 4.6 mph - N/A   Mostly Cloudy
1:56 AM 39.9 °F 36.7 °F 37.9 °F 93% 29.94 in 10.0 mi West 4.6 mph - N/A   Mostly Cloudy
2:56 AM 37.9 °F 32.1 °F 36.0 °F 93% 29.96 in 10.0 mi West 8.1 mph - N/A   Clear
3:56 AM 37.0 °F 33.3 °F 35.1 °F 93% 29.94 in 10.0 mi WSW 4.6 mph - N/A   Clear
4:56 AM 36.0 °F 32.1 °F 34.0 °F 93% 29.94 in 10.0 mi SSW 4.6 mph - N/A   Clear
5:56 AM 36.0 °F 32.1 °F 34.0 °F 93% 29.96 in 10.0 mi SW 4.6 mph - N/A   Clear
6:07 AM 35.6 °F 29.9 °F 33.8 °F 93% 29.98 in 10.0 mi SSW 6.9 mph - N/A   Partly Cloudy
6:56 AM 37.0 °F 33.3 °F 34.0 °F 89% 29.95 in 10.0 mi SW 4.6 mph - N/A   Scattered Clouds
7:56 AM 43.0 °F 38.2 °F 36.0 °F 76% 29.96 in 10.0 mi WSW 8.1 mph - N/A   Scattered Clouds
8:56 AM 50.0 °F - 37.0 °F 61% 29.95 in 10.0 mi WSW 10.4 mph 19.6 mph N/A   Scattered Clouds
9:56 AM 54.0 °F - 34.0 °F 47% 29.95 in 10.0 mi West 17.3 mph 28.8 mph N/A   Scattered Clouds
10:56 AM 57.0 °F - 32.0 °F 39% 29.94 in 10.0 mi WSW 16.1 mph 23.0 mph N/A   Scattered Clouds
11:56 AM 57.9 °F - 34.0 °F 41% 29.92 in 10.0 mi West 13.8 mph 19.6 mph N/A   Scattered Clouds
12:56 PM 59.0 °F - 36.0 °F 42% 29.91 in 10.0 mi West 13.8 mph 20.7 mph N/A   Scattered Clouds
1:56 PM 57.0 °F - 37.9 °F 49% 29.92 in 10.0 mi WNW 16.1 mph - N/A   Scattered Clouds
2:56 PM 57.0 °F - 39.0 °F 51% 29.95 in 10.0 mi NW 13.8 mph 21.9 mph N/A   Scattered Clouds
3:56 PM 50.0 °F - 37.0 °F 61% 29.98 in 10.0 mi NW 16.1 mph - N/A   Mostly Cloudy
4:56 PM 48.0 °F - 36.0 °F 63% 29.99 in 10.0 mi NNW 12.7 mph 20.7 mph N/A   Mostly Cloudy
5:56 PM 46.9 °F - 37.0 °F 68% 30.02 in 10.0 mi NNW 9.2 mph 18.4 mph N/A   Mostly Cloudy
6:56 PM 46.0 °F 39.6 °F 36.0 °F 68% 30.04 in 10.0 mi NNW 15.0 mph 26.5 mph N/A   Mostly Cloudy
7:56 PM 45.0 °F 38.9 °F 36.0 °F 71% 30.06 in 10.0 mi NNW 12.7 mph - N/A   Scattered Clouds
8:56 PM 46.0 °F 40.2 °F 37.0 °F 71% 30.08 in 10.0 mi NNW 12.7 mph - N/A   Mostly Cloudy
9:56 PM 46.0 °F 39.0 °F 37.0 °F 71% 30.08 in 10.0 mi NNW 17.3 mph 27.6 mph N/A   Mostly Cloudy
10:56 PM 46.0 °F 39.6 °F 36.0 °F 68% 30.09 in 10.0 mi North 15.0 mph 20.7 mph N/A   Mostly Cloudy
11:56 PM 46.0 °F 41.9 °F 36.0 °F 68% 30.08 in 10.0 mi North 8.1 mph 16.1 mph N/A   Overcast